contact:dominique.lefevre@mio.osupytheas.fr, maurice.libes@osupytheas.fr, didier.mallarino@osupytheas.fr
Project:EMSO http://www.emso-fr.org/EMSO-France
Depth: 2436.0 m
Title:EMSO Ligure Ouest : Data MII capteur AQUADOPP
Date,Latitude,Longitude,X_East,Y_North,Z_Up,Amplitude_X,Amplitude_Y,Amplitude_Z,Batterie,SoundSpeed,Heading,Pitch,Roll,Pressure,TIS,Speed,Direction
, degrees North, degrees East, m.s-1, m.s-1,m.s-1, 1, 1, 1, Volt, m.s-1, degree, degree, degree, dbar, degree_C, m.s-1, degree
2019-08-12T00:01:43,42.805,6.029,-0.032,0.033,-0.011,100.0,105.0,98.0,13.4,1505.3,327.5,-0.7,1.8,2470.018,13.33,0.045,315.9
2019-08-12T00:04:44,42.805,6.029,-0.027,0.033,0.004,99.0,106.0,98.0,13.4,1505.3,326.0,-0.7,1.9,2470.032,13.33,0.042,320.7
2019-08-12T00:07:45,42.805,6.029,-0.073,0.038,-0.01,99.0,107.0,99.0,13.3,1505.3,328.6,-0.7,1.9,2470.009,13.33,0.082,297.5
2019-08-12T00:10:46,42.805,6.029,-0.051,0.016,-0.035,99.0,105.0,98.0,13.4,1505.3,325.4,-0.7,1.8,2470.029,13.33,0.053,287.4
2019-08-12T00:13:47,42.805,6.029,-0.103,0.014,-0.065,101.0,106.0,97.0,13.4,1505.3,324.4,-0.7,1.9,2470.027,13.33,0.103,277.7
2019-08-12T00:16:48,42.805,6.029,-0.027,0.029,-0.024,101.0,104.0,97.0,13.3,1505.3,325.9,-0.7,1.8,2470.018,13.33,0.039,317.0
2019-08-12T00:19:49,42.805,6.029,-0.052,0.003,-0.028,100.0,106.0,97.0,13.3,1505.3,324.2,-0.7,1.8,2470.039,13.33,0.052,273.3
2019-08-12T00:22:50,42.805,6.029,-0.058,0.046,-0.055,101.0,105.0,100.0,13.4,1505.3,326.5,-0.7,1.8,2469.996,13.33,0.074,308.4
2019-08-12T00:25:51,42.805,6.029,-0.047,-0.002,-0.049,99.0,105.0,97.0,13.3,1505.3,324.4,-0.7,1.8,2470.049,13.33,0.047,267.6
2019-08-12T00:28:52,42.805,6.029,-0.059,0.032,-0.035,101.0,106.0,99.0,13.3,1505.3,327.4,-0.7,1.8,2470.041,13.33,0.067,298.5
2019-08-12T00:31:53,42.805,6.029,-0.031,0.044,-0.01,100.0,105.0,97.0,13.3,1505.3,325.8,-0.7,1.8,2470.027,13.33,0.053,324.8
2019-08-12T00:34:54,42.805,6.029,-0.042,0.035,-0.034,101.0,105.0,98.0,13.3,1505.3,325.1,-0.7,1.9,2470.054,13.33,0.054,309.8
2019-08-12T00:37:55,42.805,6.029,-0.07,0.01,-0.065,99.0,107.0,96.0,13.4,1505.3,325.6,-0.7,1.8,2470.05,13.33,0.07,278.1
2019-08-12T00:40:56,42.805,6.029,-0.052,0.026,-0.027,100.0,107.0,98.0,13.4,1505.3,324.8,-0.7,1.8,2470.044,13.33,0.058,296.6
2019-08-12T00:43:57,42.805,6.029,-0.044,0.012,-0.018,100.0,107.0,98.0,13.4,1505.3,324.1,-0.7,1.8,2470.041,13.33,0.045,285.3
2019-08-12T00:46:58,42.805,6.029,-0.022,0.005,-0.036,100.0,106.0,97.0,13.4,1505.3,325.2,-0.7,1.8,2469.988,13.33,0.022,282.8
2019-08-12T00:49:59,42.805,6.029,-0.032,0.035,-0.001,99.0,108.0,96.0,13.3,1505.3,324.2,-0.7,1.8,2470.063,13.33,0.047,317.6
2019-08-12T00:53:00,42.805,6.029,-0.065,0.024,-0.023,100.0,106.0,98.0,13.4,1505.3,326.9,-0.7,1.8,2470.049,13.33,0.069,290.3
2019-08-12T00:56:01,42.805,6.029,-0.042,0.026,-0.041,99.0,107.0,98.0,13.4,1505.3,326.4,-0.7,1.9,2470.026,13.33,0.049,301.8
2019-08-12T00:59:02,42.805,6.029,-0.04,0.029,-0.027,101.0,107.0,97.0,13.4,1505.3,326.4,-0.7,1.8,2470.021,13.33,0.049,305.9
2019-08-12T01:02:03,42.805,6.029,-0.061,0.027,-0.045,100.0,107.0,97.0,13.3,1505.3,325.5,-0.7,1.8,2470.023,13.33,0.066,293.9
2019-08-12T01:05:04,42.805,6.029,-0.046,0.02,-0.021,101.0,107.0,99.0,13.4,1505.3,326.8,-0.7,1.8,2470.015,13.33,0.05,293.5
2019-08-12T01:08:05,42.805,6.029,-0.056,0.014,-0.034,101.0,106.0,100.0,13.3,1505.3,327.9,-0.7,1.8,2470.008,13.33,0.057,284.0
2019-08-12T01:11:06,42.805,6.029,-0.036,0.005,0.016,99.0,108.0,97.0,13.3,1505.3,326.5,-0.7,1.8,2470.075,13.33,0.036,277.9
2019-08-12T01:14:07,42.805,6.029,-0.026,0.022,-0.024,101.0,106.0,97.0,13.4,1505.3,326.9,-0.7,1.9,2470.032,13.33,0.034,310.2
2019-08-12T01:17:08,42.805,6.029,-0.073,0.018,-0.043,100.0,107.0,100.0,13.3,1505.3,327.0,-0.7,1.8,2470.034,13.33,0.075,283.8
2019-08-12T01:20:09,42.805,6.029,-0.024,0.013,-0.017,101.0,107.0,98.0,13.4,1505.3,324.4,-0.7,1.8,2470.038,13.33,0.027,298.4
2019-08-12T01:23:10,42.805,6.029,-0.049,0.01,-0.027,101.0,108.0,98.0,13.3,1505.3,325.7,-0.7,1.8,2470.044,13.33,0.05,281.5
2019-08-12T01:26:11,42.805,6.029,-0.031,0.04,-0.006,101.0,107.0,99.0,13.4,1505.3,326.5,-0.7,1.8,2470.037,13.33,0.05,322.2
2019-08-12T01:29:12,42.805,6.029,-0.059,0.015,-0.054,100.0,107.0,98.0,13.4,1505.3,326.9,-0.7,1.8,2470.037,13.33,0.06,284.3
2019-08-12T01:32:13,42.805,6.029,-0.036,0.034,-0.008,101.0,106.0,99.0,13.4,1505.3,324.7,-0.7,1.8,2470.023,13.33,0.049,313.4
2019-08-12T01:35:14,42.805,6.029,-0.028,0.029,-0.015,102.0,107.0,99.0,13.4,1505.3,323.2,-0.7,1.9,2470.027,13.33,0.04,316.0
2019-08-12T01:38:15,42.805,6.029,-0.018,0.03,-0.013,99.0,107.0,99.0,13.4,1505.3,326.8,-0.7,1.8,2470.015,13.33,0.034,329.0
2019-08-12T01:41:16,42.805,6.029,-0.049,0.028,-0.014,101.0,105.0,100.0,13.3,1505.3,325.7,-0.7,1.8,2470.057,13.33,0.056,299.7
2019-08-12T01:44:17,42.805,6.029,-0.049,0.019,-0.001,101.0,107.0,98.0,13.4,1505.3,326.0,-0.7,1.8,2470.062,13.33,0.052,291.2
2019-08-12T01:47:18,42.805,6.029,-0.055,0.04,-0.05,101.0,107.0,99.0,13.4,1505.3,325.6,-0.7,1.9,2470.099,13.33,0.068,306.0
2019-08-12T01:50:19,42.805,6.029,-0.04,0.026,-0.041,101.0,108.0,98.0,13.4,1505.3,326.2,-0.7,1.8,2470.072,13.33,0.047,303.0
2019-08-12T01:53:20,42.805,6.029,-0.035,0.034,-0.018,101.0,107.0,98.0,13.4,1505.3,322.9,-0.7,1.8,2470.026,13.33,0.048,314.2
2019-08-12T01:56:21,42.805,6.029,-0.033,0.009,-0.018,101.0,107.0,98.0,13.4,1505.3,324.8,-0.7,1.8,2470.08,13.33,0.034,285.3
2019-08-12T01:59:22,42.805,6.029,-0.054,0.008,0.005,101.0,106.0,98.0,13.4,1505.3,326.9,-0.7,1.9,2470.043,13.33,0.054,278.4
2019-08-12T02:02:23,42.805,6.029,-0.013,0.027,0.017,101.0,107.0,99.0,13.4,1505.3,327.4,-0.7,1.8,2470.053,13.33,0.029,334.3
2019-08-12T02:05:24,42.805,6.029,-0.033,0.016,-0.002,99.0,109.0,98.0,13.4,1505.3,326.2,-0.7,1.8,2470.068,13.33,0.036,295.9
2019-08-12T02:08:25,42.805,6.029,-0.037,0.023,-0.035,102.0,107.0,97.0,13.3,1505.3,327.0,-0.7,1.8,2470.038,13.33,0.043,301.9
2019-08-12T02:11:26,42.805,6.029,-0.015,0.027,0.016,102.0,108.0,99.0,13.3,1505.3,325.4,-0.7,1.8,2470.069,13.33,0.03,330.9
2019-08-12T02:14:27,42.805,6.029,-0.034,0.028,-0.044,103.0,107.0,97.0,13.4,1505.3,327.8,-0.7,1.8,2470.034,13.33,0.044,309.5
2019-08-12T02:17:28,42.805,6.029,-0.027,0.046,-0.031,102.0,106.0,99.0,13.4,1505.3,326.6,-0.7,1.8,2470.048,13.33,0.053,329.6
2019-08-12T02:20:29,42.805,6.029,-0.039,0.023,0.01,103.0,105.0,99.0,13.4,1505.3,324.8,-0.7,1.8,2469.992,13.33,0.045,300.5
2019-08-12T02:23:30,42.805,6.029,-0.032,0.024,-0.011,100.0,107.0,99.0,13.3,1505.3,322.8,-0.7,1.8,2470.087,13.33,0.04,306.9
2019-08-12T02:26:31,42.805,6.029,-0.035,0.022,-0.013,101.0,109.0,100.0,13.4,1505.3,326.7,-0.7,1.8,2470.047,13.33,0.041,302.2
2019-08-12T02:29:32,42.805,6.029,-0.037,0.023,-0.035,101.0,107.0,97.0,13.4,1505.3,327.6,-0.7,1.9,2470.055,13.33,0.043,301.9
2019-08-12T02:32:33,42.805,6.029,-0.09,0.024,-0.042,101.0,108.0,97.0,13.4,1505.3,325.6,-0.7,1.8,2470.052,13.33,0.093,284.9
2019-08-12T02:35:34,42.805,6.029,-0.073,0.024,-0.037,100.0,109.0,97.0,13.4,1505.3,327.2,-0.7,1.9,2470.076,13.33,0.076,288.2
2019-08-12T02:38:35,42.805,6.029,-0.023,0.032,0.003,100.0,109.0,98.0,13.4,1505.3,326.8,-0.7,1.8,2470.107,13.33,0.039,324.3
2019-08-12T02:41:36,42.805,6.029,-0.028,0.037,-0.014,100.0,109.0,97.0,13.3,1505.3,326.9,-0.7,1.8,2470.094,13.33,0.046,322.9
2019-08-12T02:44:37,42.805,6.029,-0.031,0.015,-0.043,100.0,105.0,98.0,13.4,1505.3,323.2,-0.7,1.8,2470.079,13.33,0.034,295.8
2019-08-12T02:47:38,42.805,6.029,-0.092,0.025,-0.077,101.0,109.0,98.0,13.4,1505.3,324.8,-0.7,1.8,2470.098,13.33,0.095,285.2
2019-08-12T02:50:39,42.805,6.029,-0.041,0.027,-0.012,101.0,107.0,99.0,13.3,1505.3,327.2,-0.7,1.8,2470.049,13.33,0.049,303.4
2019-08-12T02:53:40,42.805,6.029,-0.072,0.034,-0.025,100.0,107.0,98.0,13.4,1505.3,323.4,-0.7,1.9,2470.082,13.33,0.079,295.3
2019-08-12T02:56:41,42.805,6.029,-0.045,0.031,-0.013,101.0,108.0,97.0,13.3,1505.3,323.4,-0.7,1.8,2470.048,13.33,0.054,304.6
2019-08-12T02:59:42,42.805,6.029,-0.048,0.022,-0.011,101.0,108.0,97.0,13.4,1505.3,327.8,-0.7,1.8,2470.103,13.33,0.052,294.6
2019-08-12T03:02:43,42.805,6.029,-0.041,0.023,-0.03,100.0,106.0,98.0,13.4,1505.3,324.6,-0.7,1.8,2470.084,13.33,0.047,299.3
2019-08-12T03:05:44,42.805,6.029,-0.074,0.045,-0.029,101.0,109.0,97.0,13.4,1505.3,325.7,-0.7,1.8,2470.113,13.33,0.086,301.3
2019-08-12T03:08:45,42.805,6.029,-0.033,0.021,-0.033,100.0,108.0,97.0,13.4,1505.3,323.8,-0.7,1.8,2470.101,13.33,0.039,302.5
2019-08-12T03:11:46,42.805,6.029,-0.023,0.017,-0.021,100.0,108.0,98.0,13.3,1505.3,326.8,-0.7,1.9,2470.078,13.33,0.028,306.5
2019-08-12T03:14:47,42.805,6.029,-0.053,0.009,-0.016,100.0,108.0,99.0,13.4,1505.3,328.1,-0.7,1.8,2470.117,13.33,0.053,279.6
2019-08-12T03:17:48,42.805,6.029,-0.052,-0.003,-0.013,103.0,109.0,96.0,13.3,1505.3,324.2,-0.7,1.8,2470.116,13.33,0.052,266.7
2019-08-12T03:20:49,42.805,6.029,-0.015,0.007,-0.023,100.0,108.0,99.0,13.4,1505.3,323.8,-0.7,1.8,2470.107,13.33,0.016,295.0
2019-08-12T03:23:50,42.805,6.029,-0.049,0.028,-0.01,102.0,106.0,99.0,13.4,1505.3,323.2,-0.7,1.9,2470.057,13.33,0.056,299.7
2019-08-12T03:26:51,42.805,6.029,-0.03,0.016,-0.053,101.0,108.0,99.0,13.4,1505.3,327.0,-0.7,1.8,2470.055,13.33,0.034,298.1
2019-08-12T03:29:52,42.805,6.029,-0.027,0.028,-0.018,102.0,107.0,100.0,13.4,1505.3,327.4,-0.7,1.8,2470.091,13.33,0.038,316.0
2019-08-12T03:32:53,42.805,6.029,-0.042,0.029,-0.04,101.0,109.0,98.0,13.4,1505.3,323.4,-0.7,1.8,2470.092,13.33,0.051,304.6
2019-08-12T03:35:54,42.805,6.029,-0.03,0.033,-0.008,101.0,105.0,98.0,13.4,1505.3,324.5,-0.7,1.8,2470.076,13.33,0.044,317.7
2019-08-12T03:38:55,42.805,6.029,-0.001,0.022,0.018,102.0,106.0,98.0,13.4,1505.3,324.7,-0.7,1.8,2470.101,13.33,0.022,357.4
2019-08-12T03:41:56,42.805,6.029,-0.02,0.039,-0.016,101.0,106.0,98.0,13.4,1505.3,323.1,-0.7,1.8,2470.109,13.33,0.043,332.9
2019-08-12T03:44:57,42.805,6.029,-0.034,0.033,-0.017,101.0,107.0,98.0,13.4,1505.3,325.2,-0.7,1.8,2470.084,13.33,0.047,314.1
2019-08-12T03:47:58,42.805,6.029,-0.027,0.026,-0.015,100.0,110.0,98.0,13.3,1505.3,323.6,-0.7,1.8,2470.119,13.33,0.037,313.9
2019-08-12T03:50:59,42.805,6.029,-0.044,0.04,-0.003,101.0,112.0,97.0,13.4,1505.3,327.9,-0.7,1.8,2470.13,13.33,0.059,312.3
2019-08-12T03:54:00,42.805,6.029,-0.026,0.042,-0.042,102.0,109.0,98.0,13.4,1505.3,327.0,-0.7,1.8,2470.105,13.33,0.049,328.2
2019-08-12T03:57:01,42.805,6.029,-0.033,0.035,-0.002,100.0,110.0,99.0,13.4,1505.3,326.5,-0.7,1.9,2470.064,13.33,0.048,316.7
2019-08-12T04:00:02,42.805,6.029,-0.015,0.033,-0.01,102.0,111.0,98.0,13.4,1505.3,324.1,-0.7,1.8,2470.09,13.33,0.036,335.6
2019-08-12T04:03:03,42.805,6.029,-0.016,0.021,0.01,100.0,110.0,98.0,13.4,1505.3,325.1,-0.7,1.8,2470.105,13.33,0.026,322.7
2019-08-12T04:06:04,42.805,6.029,-0.027,0.049,0.0,100.0,111.0,99.0,13.4,1505.3,327.2,-0.7,1.9,2470.053,13.33,0.055,331.1
2019-08-12T04:09:05,42.805,6.029,-0.028,0.024,-0.04,103.0,110.0,98.0,13.4,1505.3,325.5,-0.7,1.9,2470.097,13.33,0.036,310.6
2019-08-12T04:12:06,42.805,6.029,-0.025,0.025,-0.015,101.0,110.0,97.0,13.4,1505.3,323.0,-0.7,1.8,2470.12,13.33,0.035,315.0
2019-08-12T04:15:07,42.805,6.029,-0.025,0.026,-0.015,100.0,110.0,98.0,13.4,1505.3,327.8,-0.7,1.8,2470.108,13.33,0.036,316.1
2019-08-12T04:18:08,42.805,6.029,-0.053,0.025,-0.019,100.0,109.0,98.0,13.4,1505.3,325.3,-0.7,1.8,2470.135,13.33,0.058,295.3
2019-08-12T04:21:09,42.805,6.029,-0.049,0.019,-0.023,101.0,109.0,98.0,13.4,1505.3,327.4,-0.7,1.8,2470.102,13.33,0.052,291.2
2019-08-12T04:24:10,42.805,6.029,-0.027,0.013,-0.028,99.0,109.0,99.0,13.4,1505.3,326.1,-0.7,1.8,2470.11,13.33,0.029,295.7
2019-08-12T04:27:11,42.805,6.029,-0.07,0.027,-0.054,101.0,109.0,98.0,13.4,1505.3,324.9,-0.7,1.8,2470.086,13.33,0.075,291.1
2019-08-12T04:30:12,42.805,6.029,-0.048,0.034,-0.041,100.0,110.0,98.0,13.4,1505.3,326.2,-0.7,1.9,2470.12,13.33,0.058,305.3
2019-08-12T04:33:13,42.805,6.029,-0.015,0.019,-0.053,102.0,109.0,98.0,13.4,1505.3,327.4,-0.7,1.8,2470.075,13.33,0.024,321.7
2019-08-12T04:36:14,42.805,6.029,-0.04,0.013,-0.052,101.0,110.0,98.0,13.4,1505.3,323.0,-0.7,1.8,2470.071,13.33,0.042,288.0
2019-08-12T04:39:15,42.805,6.029,-0.026,0.057,0.011,100.0,111.0,97.0,13.4,1505.3,325.9,-0.7,1.8,2470.101,13.33,0.062,335.5
2019-08-12T04:42:16,42.805,6.029,-0.059,0.013,-0.023,99.0,109.0,98.0,13.3,1505.3,324.8,-0.7,1.8,2470.1,13.33,0.06,282.4
2019-08-12T04:45:17,42.805,6.029,-0.031,0.023,-0.039,102.0,110.0,98.0,13.4,1505.3,323.9,-0.7,1.8,2470.081,13.33,0.038,306.6
2019-08-12T04:48:18,42.805,6.029,-0.006,0.013,-0.014,100.0,111.0,98.0,13.4,1505.3,326.9,-0.7,1.8,2470.113,13.33,0.014,335.2
2019-08-12T04:51:19,42.805,6.029,-0.032,0.023,-0.066,101.0,110.0,97.0,13.3,1505.3,325.3,-0.7,1.8,2470.105,13.33,0.039,305.7
2019-08-12T04:54:20,42.805,6.029,-0.022,0.004,-0.052,102.0,109.0,97.0,13.3,1505.3,327.7,-0.7,1.8,2470.077,13.33,0.022,280.3
2019-08-12T04:57:21,42.805,6.029,-0.027,0.033,-0.002,102.0,109.0,98.0,13.4,1505.3,326.7,-0.7,1.9,2470.082,13.33,0.042,320.7
2019-08-12T05:00:22,42.805,6.029,-0.043,0.024,-0.024,100.0,110.0,98.0,13.4,1505.3,326.4,-0.7,1.9,2470.123,13.33,0.049,299.2
2019-08-12T05:03:23,42.805,6.029,-0.026,0.023,-0.001,101.0,110.0,98.0,13.4,1505.3,323.6,-0.7,1.8,2470.087,13.33,0.034,311.5
2019-08-12T05:06:24,42.805,6.029,-0.039,0.048,0.013,100.0,110.0,98.0,13.3,1505.3,324.0,-0.7,1.8,2470.088,13.33,0.061,320.9
2019-08-12T05:09:25,42.805,6.029,-0.016,0.019,0.007,100.0,109.0,99.0,13.4,1505.3,326.9,-0.7,1.8,2470.098,13.33,0.024,319.9
2019-08-12T05:12:26,42.805,6.029,-0.023,0.016,-0.019,100.0,108.0,99.0,13.3,1505.3,325.7,-0.7,1.9,2470.08,13.33,0.028,304.8
2019-08-12T05:15:27,42.805,6.029,-0.031,0.025,-0.026,98.0,110.0,99.0,13.4,1505.3,324.0,-0.7,1.8,2470.082,13.33,0.039,308.9
2019-08-12T05:18:28,42.805,6.029,-0.039,0.046,0.017,102.0,109.0,98.0,13.4,1505.3,325.4,-0.7,1.8,2470.071,13.33,0.06,319.7
2019-08-12T05:21:29,42.805,6.029,-0.039,0.034,-0.007,100.0,110.0,96.0,13.4,1505.3,323.2,-0.7,1.8,2470.093,13.33,0.051,311.1
2019-08-12T05:24:30,42.805,6.029,-0.04,0.035,-0.011,102.0,108.0,98.0,13.4,1505.3,325.9,-0.7,1.8,2470.096,13.33,0.053,311.2
2019-08-12T05:27:31,42.805,6.029,-0.006,0.014,0.013,101.0,110.0,97.0,13.4,1505.3,326.6,-0.7,1.8,2470.128,13.33,0.015,336.8
2019-08-12T05:30:32,42.805,6.029,-0.041,0.023,-0.012,101.0,109.0,99.0,13.4,1505.3,325.9,-0.7,1.8,2470.122,13.33,0.047,299.3
2019-08-12T05:33:33,42.805,6.029,-0.03,0.011,-0.045,101.0,109.0,99.0,13.3,1505.3,324.7,-0.7,1.8,2470.111,13.33,0.031,290.1
2019-08-12T05:36:34,42.805,6.029,-0.029,0.042,-0.002,100.0,108.0,97.0,13.4,1505.3,328.2,-0.7,1.9,2470.081,13.33,0.051,325.4
2019-08-12T05:39:35,42.805,6.029,-0.018,0.016,-0.026,101.0,109.0,98.0,13.3,1505.3,323.1,-0.7,1.8,2470.059,13.33,0.024,311.6
2019-08-12T05:42:36,42.805,6.029,-0.024,0.018,-0.026,103.0,108.0,98.0,13.3,1505.3,323.0,-0.7,1.8,2470.069,13.33,0.03,306.9
2019-08-12T05:45:37,42.805,6.029,-0.03,0.017,-0.053,103.0,109.0,98.0,13.4,1505.4,325.7,-0.7,1.8,2470.046,13.34,0.034,299.5
2019-08-12T05:48:38,42.805,6.029,-0.006,0.02,-0.005,101.0,108.0,98.0,13.3,1505.4,327.1,-0.7,1.8,2470.086,13.34,0.02,343.3
2019-08-12T05:51:39,42.805,6.029,-0.022,0.013,-0.015,102.0,108.0,98.0,13.3,1505.4,324.9,-0.7,1.8,2470.102,13.34,0.025,300.6
2019-08-12T05:54:40,42.805,6.029,0.006,0.005,0.013,101.0,108.0,98.0,13.4,1505.4,326.6,-0.7,1.8,2470.067,13.34,0.007,50.2
2019-08-12T05:57:41,42.805,6.029,-0.008,0.032,0.0,101.0,107.0,99.0,13.4,1505.4,322.9,-0.7,1.8,2470.078,13.34,0.032,346.0
2019-08-12T06:00:42,42.805,6.029,-0.029,0.011,-0.028,101.0,108.0,99.0,13.4,1505.4,323.6,-0.7,1.8,2470.088,13.34,0.031,290.8
2019-08-12T06:03:43,42.805,6.029,-0.029,0.01,-0.026,102.0,109.0,98.0,13.4,1505.4,326.0,-0.7,1.8,2470.116,13.34,0.03,289.0
2019-08-12T06:06:44,42.805,6.029,-0.032,0.027,-0.015,101.0,108.0,98.0,13.4,1505.4,324.8,-0.7,1.8,2470.081,13.34,0.041,310.2
2019-08-12T06:09:45,42.805,6.029,-0.001,0.034,-0.011,99.0,109.0,98.0,13.4,1505.4,325.6,-0.7,1.8,2470.111,13.34,0.034,358.3
2019-08-12T06:12:46,42.805,6.029,-0.033,0.045,-0.033,101.0,108.0,98.0,13.4,1505.4,327.3,-0.7,1.9,2470.113,13.34,0.055,323.7
2019-08-12T06:15:47,42.805,6.029,-0.037,0.013,-0.025,101.0,108.0,99.0,13.4,1505.4,325.4,-0.7,1.8,2470.067,13.34,0.039,289.4
2019-08-12T06:18:48,42.805,6.029,-0.033,0.017,-0.063,101.0,109.0,98.0,13.4,1505.4,325.1,-0.7,1.8,2470.079,13.34,0.037,297.3
2019-08-12T06:21:49,42.805,6.029,-0.037,0.041,-0.032,102.0,108.0,97.0,13.4,1505.4,327.3,-0.7,1.8,2470.091,13.34,0.055,317.9
2019-08-12T06:24:50,42.805,6.029,0.016,0.004,-0.033,102.0,107.0,97.0,13.3,1505.4,326.2,-0.7,1.8,2470.06,13.34,0.016,76.0
2019-08-12T06:27:51,42.805,6.029,-0.037,0.005,-0.024,102.0,107.0,99.0,13.4,1505.4,326.4,-0.7,1.8,2470.099,13.34,0.037,277.7
2019-08-12T06:30:52,42.805,6.029,-0.045,0.016,-0.043,100.0,109.0,98.0,13.4,1505.4,327.8,-0.7,1.9,2470.093,13.34,0.047,289.6
2019-08-12T06:33:53,42.805,6.029,-0.003,0.025,-0.042,102.0,109.0,98.0,13.4,1505.4,326.9,-0.7,1.9,2470.102,13.34,0.025,353.2
2019-08-12T06:36:54,42.805,6.029,-0.015,0.011,-0.068,101.0,108.0,97.0,13.4,1505.4,328.1,-0.7,1.8,2470.064,13.34,0.018,306.3
2019-08-12T06:39:55,42.805,6.029,-0.013,0.017,-0.007,100.0,110.0,97.0,13.4,1505.4,324.7,-0.7,1.8,2470.089,13.34,0.021,322.6
2019-08-12T06:42:56,42.805,6.029,-0.002,0.01,0.0,102.0,108.0,99.0,13.4,1505.4,326.1,-0.7,1.8,2470.08,13.34,0.01,348.7
2019-08-12T06:45:57,42.805,6.029,-0.016,0.021,-0.023,101.0,108.0,100.0,13.3,1505.4,327.9,-0.7,1.8,2470.053,13.34,0.026,322.7
2019-08-12T06:48:58,42.805,6.029,-0.032,0.028,-0.045,101.0,108.0,100.0,13.4,1505.4,325.4,-0.7,1.9,2470.11,13.34,0.042,311.2
2019-08-12T06:51:59,42.805,6.029,-0.03,0.019,-0.022,104.0,109.0,98.0,13.4,1505.4,327.4,-0.7,1.8,2470.015,13.34,0.035,302.3
2019-08-12T06:55:00,42.805,6.029,0.004,0.004,-0.055,101.0,107.0,98.0,13.4,1505.4,326.8,-0.7,1.8,2470.067,13.34,0.005,45.0
2019-08-12T06:58:01,42.805,6.029,-0.03,0.015,-0.018,101.0,108.0,98.0,13.4,1505.4,325.8,-0.7,1.8,2470.08,13.34,0.033,296.6
2019-08-12T07:01:02,42.805,6.029,-0.013,0.007,-0.011,101.0,108.0,98.0,13.4,1505.4,326.0,-0.7,1.8,2470.092,13.34,0.014,298.3
2019-08-12T07:04:03,42.805,6.029,-0.028,0.0,-0.018,100.0,108.0,99.0,13.3,1505.4,325.5,-0.7,1.8,2470.093,13.34,0.028,270.0
2019-08-12T07:07:04,42.805,6.029,-0.013,0.017,-0.015,107.0,108.0,99.0,13.3,1505.4,326.9,-0.7,1.8,2470.056,13.34,0.021,322.6
2019-08-12T07:10:05,42.805,6.029,-0.02,0.02,-0.033,100.0,109.0,97.0,13.4,1505.4,324.2,-0.7,1.8,2470.069,13.34,0.028,315.0
2019-08-12T07:13:06,42.805,6.029,-0.015,0.008,-0.031,99.0,109.0,99.0,13.4,1505.4,324.3,-0.7,1.9,2470.102,13.34,0.017,298.1
2019-08-12T07:16:07,42.805,6.029,-0.024,0.029,-0.008,101.0,108.0,98.0,13.4,1505.4,328.1,-0.7,1.8,2470.083,13.34,0.037,320.4
2019-08-12T07:19:08,42.805,6.029,0.002,0.013,-0.012,99.0,108.0,99.0,13.3,1505.4,327.2,-0.7,1.8,2470.069,13.34,0.013,8.7
2019-08-12T07:22:09,42.805,6.029,-0.026,0.02,-0.012,102.0,107.0,98.0,13.4,1505.4,323.7,-0.7,1.8,2470.086,13.34,0.032,307.6
2019-08-12T07:25:10,42.805,6.029,-0.043,0.005,-0.071,102.0,108.0,99.0,13.3,1505.4,325.0,-0.7,1.8,2470.033,13.34,0.043,276.6
2019-08-12T07:28:11,42.805,6.029,-0.001,0.035,-0.029,102.0,107.0,98.0,13.4,1505.4,327.1,-0.7,1.8,2470.042,13.34,0.035,358.4
2019-08-12T07:31:12,42.805,6.029,-0.005,0.012,-0.019,99.0,108.0,99.0,13.4,1505.4,323.2,-0.7,1.9,2470.087,13.34,0.013,337.4
2019-08-12T07:34:13,42.805,6.029,-0.011,0.043,-0.028,100.0,108.0,98.0,13.3,1505.4,323.5,-0.7,1.8,2470.082,13.34,0.044,345.7
2019-08-12T07:37:14,42.805,6.029,0.007,0.002,-0.016,100.0,106.0,98.0,13.3,1505.4,327.8,-0.7,1.9,2470.118,13.34,0.007,74.1
2019-08-12T07:40:15,42.805,6.029,-0.031,0.022,-0.027,100.0,107.0,98.0,13.3,1505.4,326.0,-0.7,1.8,2470.042,13.34,0.038,305.4
2019-08-12T07:43:16,42.805,6.029,-0.039,0.022,-0.049,101.0,108.0,98.0,13.3,1505.4,325.3,-0.7,1.8,2470.087,13.34,0.044,299.4
2019-08-12T07:46:17,42.805,6.029,0.001,0.012,-0.038,100.0,110.0,98.0,13.3,1505.4,326.9,-0.7,1.8,2470.092,13.34,0.012,4.8
2019-08-12T07:49:18,42.805,6.029,-0.012,0.019,-0.063,99.0,106.0,98.0,13.4,1505.4,324.5,-0.7,1.8,2470.089,13.34,0.022,327.7
2019-08-12T07:52:19,42.805,6.029,-0.03,0.001,-0.041,100.0,107.0,98.0,13.4,1505.4,325.1,-0.7,1.8,2470.067,13.34,0.03,271.9
2019-08-12T07:55:20,42.805,6.029,-0.01,0.023,-0.026,102.0,106.0,97.0,13.4,1505.4,324.6,-0.7,1.9,2470.057,13.34,0.025,336.5
2019-08-12T07:58:21,42.805,6.029,-0.001,0.027,-0.012,99.0,106.0,97.0,13.4,1505.4,324.2,-0.7,1.8,2470.078,13.34,0.027,357.9
2019-08-12T08:01:22,42.805,6.029,0.016,0.025,-0.021,100.0,107.0,97.0,13.4,1505.4,326.6,-0.8,1.8,2470.03,13.34,0.029,32.6
2019-08-12T08:04:23,42.805,6.029,-0.014,0.021,-0.025,100.0,107.0,98.0,13.4,1505.4,325.5,-0.7,1.8,2470.042,13.34,0.025,326.3
2019-08-12T08:07:24,42.805,6.029,-0.012,0.012,-0.051,101.0,107.0,98.0,13.4,1505.4,324.8,-0.7,1.9,2470.053,13.34,0.016,315.0
2019-08-12T08:10:25,42.805,6.029,0.01,-0.004,-0.017,101.0,106.0,99.0,13.4,1505.4,327.2,-0.7,1.8,2470.007,13.34,0.01,111.8
2019-08-12T08:13:26,42.805,6.029,-0.039,0.007,-0.073,101.0,106.0,98.0,13.4,1505.4,326.3,-0.7,1.8,2470.054,13.34,0.039,280.2
2019-08-12T08:16:27,42.805,6.029,-0.002,0.005,-0.021,98.0,105.0,99.0,13.4,1505.4,327.0,-0.7,1.8,2470.05,13.34,0.005,338.2
2019-08-12T08:19:28,42.805,6.029,-0.005,0.006,-0.028,101.0,108.0,98.0,13.4,1505.4,325.2,-0.7,1.8,2470.052,13.34,0.007,320.2
2019-08-12T08:22:29,42.805,6.029,-0.027,0.016,-0.055,101.0,106.0,98.0,13.4,1505.4,325.8,-0.7,1.8,2470.061,13.34,0.031,300.7
2019-08-12T08:25:30,42.805,6.029,-0.019,-0.009,-0.066,100.0,107.0,97.0,13.4,1505.4,326.5,-0.7,1.8,2470.071,13.34,0.021,244.7
2019-08-12T08:28:31,42.805,6.029,-0.021,0.029,-0.026,101.0,107.0,98.0,13.3,1505.4,327.1,-0.7,1.9,2470.049,13.34,0.035,324.1
2019-08-12T08:31:32,42.805,6.029,-0.006,0.046,-0.001,100.0,107.0,98.0,13.4,1505.4,326.6,-0.7,1.8,2470.05,13.34,0.046,352.6
2019-08-12T08:34:33,42.805,6.029,0.031,0.009,0.005,100.0,108.0,97.0,13.3,1505.4,327.2,-0.7,1.8,2470.061,13.34,0.032,73.8
2019-08-12T08:37:34,42.805,6.029,-0.043,0.019,-0.047,102.0,105.0,98.0,13.3,1505.4,325.6,-0.7,1.8,2470.04,13.34,0.047,293.8
2019-08-12T08:40:35,42.805,6.029,-0.025,0.017,-0.01,102.0,108.0,98.0,13.4,1505.4,324.1,-0.7,1.8,2470.031,13.34,0.03,304.2
2019-08-12T08:43:36,42.805,6.029,-0.072,0.04,-0.054,101.0,107.0,97.0,13.4,1505.4,323.0,-0.7,1.8,2470.06,13.34,0.082,299.1
2019-08-12T08:46:37,42.805,6.029,0.009,0.004,-0.051,103.0,107.0,98.0,13.3,1505.4,325.1,-0.7,1.8,2470.031,13.34,0.009,66.0
2019-08-12T08:49:38,42.805,6.029,-0.023,0.0,-0.045,101.0,109.0,97.0,13.4,1505.4,325.3,-0.7,1.9,2470.07,13.34,0.023,270.0
2019-08-12T08:52:39,42.805,6.029,-0.048,0.007,-0.072,101.0,106.0,99.0,13.3,1505.4,324.3,-0.7,1.8,2470.032,13.34,0.048,278.3
2019-08-12T08:55:40,42.805,6.029,-0.03,-0.006,-0.05,101.0,105.0,97.0,13.4,1505.4,324.9,-0.7,1.8,2470.019,13.34,0.03,258.7
2019-08-12T08:58:41,42.805,6.029,-0.035,0.003,-0.046,101.0,108.0,97.0,13.4,1505.4,324.3,-0.7,1.8,2470.05,13.35,0.035,274.9
2019-08-12T09:01:42,42.805,6.029,0.016,-0.003,-0.009,100.0,106.0,101.0,13.3,1505.4,327.0,-0.7,1.8,2470.051,13.35,0.016,100.6
2019-08-12T09:04:43,42.805,6.029,0.009,0.017,-0.018,101.0,106.0,99.0,13.4,1505.4,327.6,-0.7,1.8,2470.043,13.35,0.019,27.9
2019-08-12T09:07:44,42.805,6.029,0.015,0.005,-0.022,101.0,105.0,98.0,13.4,1505.4,323.9,-0.7,1.8,2470.013,13.35,0.015,71.6
2019-08-12T09:10:45,42.805,6.029,-0.017,0.009,-0.02,100.0,106.0,97.0,13.4,1505.4,326.5,-0.7,1.8,2469.994,13.35,0.019,297.9
2019-08-12T09:13:46,42.805,6.029,-0.008,0.001,-0.025,101.0,106.0,98.0,13.4,1505.4,325.1,-0.7,1.9,2470.024,13.35,0.008,277.1
2019-08-12T09:16:47,42.805,6.029,-0.055,0.025,-0.057,100.0,104.0,98.0,13.4,1505.4,328.4,-0.7,1.8,2470.015,13.35,0.06,294.4
2019-08-12T09:19:48,42.805,6.029,-0.036,-0.012,-0.064,102.0,104.0,98.0,13.4,1505.4,323.3,-0.7,1.9,2470.033,13.35,0.037,251.6
2019-08-12T09:22:49,42.805,6.029,-0.032,0.018,-0.051,101.0,109.0,98.0,13.3,1505.4,323.0,-0.7,1.8,2470.034,13.35,0.036,299.4
2019-08-12T09:25:50,42.805,6.029,-0.044,0.01,-0.058,102.0,107.0,97.0,13.3,1505.4,323.4,-0.7,1.8,2470.016,13.35,0.045,282.8
2019-08-12T09:28:51,42.805,6.029,-0.014,0.01,-0.027,102.0,104.0,102.0,13.4,1505.4,323.9,-0.7,1.8,2469.975,13.35,0.017,305.5
2019-08-12T09:31:52,42.805,6.029,-0.01,-0.007,-0.019,101.0,106.0,96.0,13.4,1505.4,323.6,-0.7,1.8,2470.007,13.35,0.012,235.0